Estación de Casa Rosada

Ultimos registro cada 15 minutos 45
Estación Fecha / Hora Temperatura Humedad Lluvia Velocidad Dirección Radiación Presion
45 Casa Rosada 05-05-2026 11:15 23,7 22 0 0,4 33 596 1012,4
44 Casa Rosada 05-05-2026 11:00 22,9 22 0 0,4 31 587 1012,8
43 Casa Rosada 05-05-2026 10:45 21,4 27 0 0,4 101 547 1013,6
42 Casa Rosada 05-05-2026 10:15 20,1 33 0 0,4 25 504 1014,2
41 Casa Rosada 05-05-2026 10:00 18,7 38 0 0,9 33 466 1014,6
40 Casa Rosada 05-05-2026 09:45 17,3 44 0 1,3 28 424 1015,1
39 Casa Rosada 05-05-2026 09:30 16 49 0 0,9 212 367 1015,7
38 Casa Rosada 05-05-2026 09:15 13,3 55 0 0,9 148 360 1016,1
37 Casa Rosada 05-05-2026 09:00 10,6 56 0 0,4 162 304 1015,8
36 Casa Rosada 05-05-2026 08:45 8,2 60 0 0,9 167 70 1015,7
35 Casa Rosada 05-05-2026 08:30 7,2 64 0 0 157 76 1015,6
34 Casa Rosada 05-05-2026 08:15 6,3 66 0 1,3 167 58 1015,5
33 Casa Rosada 05-05-2026 08:00 5,7 67 0 0 161 30 1015
32 Casa Rosada 05-05-2026 07:45 5,3 69 0 0,4 177 28 1014,8
31 Casa Rosada 05-05-2026 07:30 4,9 69 0 0 183 26 1014,7
30 Casa Rosada 05-05-2026 07:15 5,2 69 0 0 182 14 1014,4
29 Casa Rosada 05-05-2026 07:00 5,2 68 0 0 182 0 1014,3
28 Casa Rosada 05-05-2026 06:45 5,2 68 0 0,4 167 0 1013,9
27 Casa Rosada 05-05-2026 06:30 5,3 68 0 0,4 177 0 1013,6
26 Casa Rosada 05-05-2026 06:15 5,2 68 0 0,9 172 0 1013,2
25 Casa Rosada 05-05-2026 06:00 5,5 68 0 0 167 0 1013,2
24 Casa Rosada 05-05-2026 05:45 5,8 66 0 0 167 0 1012,9
23 Casa Rosada 05-05-2026 05:30 6,2 66 0 0,4 177 0 1012,8
22 Casa Rosada 05-05-2026 05:15 6,5 65 0 0,4 177 0 1012,7
21 Casa Rosada 05-05-2026 05:00 7,2 63 0 0 155 0 1012,6
20 Casa Rosada 05-05-2026 04:45 7,6 63 0 0 96 0 1012,6
19 Casa Rosada 05-05-2026 04:30 7,6 62 0 0,9 167 0 1012,5
18 Casa Rosada 05-05-2026 04:15 8,4 60 0 0 177 0 1012,3
17 Casa Rosada 05-05-2026 04:00 8,9 58 0 0 177 0 1012,1
16 Casa Rosada 05-05-2026 03:45 9,3 57 0 0,9 195 0 1012,1
15 Casa Rosada 05-05-2026 03:30 9,4 57 0 0,4 172 0 1012
14 Casa Rosada 05-05-2026 03:15 9,5 56 0 0,9 145 0 1012,2
13 Casa Rosada 05-05-2026 03:00 10,1 55 0 0,4 167 0 1012,3
12 Casa Rosada 05-05-2026 02:45 10,1 55 0 0,9 160 0 1012,4
11 Casa Rosada 05-05-2026 02:30 10,2 55 0 0,4 167 0 1012,3
10 Casa Rosada 05-05-2026 02:15 10,5 55 0 0 172 0 1012,5
9 Casa Rosada 05-05-2026 02:00 10,6 54 0 0,4 172 0 1012,6
8 Casa Rosada 05-05-2026 01:45 10,7 55 0 0,9 181 0 1012,7
7 Casa Rosada 05-05-2026 01:30 10,9 55 0 0 167 0 1012,5
6 Casa Rosada 05-05-2026 01:15 10,8 56 0 0,4 190 0 1012,6
5 Casa Rosada 05-05-2026 01:00 11,3 55 0 0,9 183 0 1012,7
4 Casa Rosada 05-05-2026 00:45 11,6 56 0 0,9 163 0 1012,5
3 Casa Rosada 05-05-2026 00:30 11,6 55 0 0,9 185 0 1012,6
2 Casa Rosada 05-05-2026 00:15 12,1 54 0 0,9 188 0 1012,8
1 Casa Rosada 05-05-2026 00:00 12,7 57 0 0,4 177 0 1012,8